User: anonymous   Login
Location: Newark
(39.5667°N, 8.9833°E)
Time: 20:43:41
(UTC+00:00)
Language:

Courier 1B Rocket - Orbit

View from above orbital plane
View from above orbital plane
View from above satellite
View from above satellite

Ground track
Ground track

The orbit data is extracted from the following two-line orbital elements,

1    59U 60013B   19285.81740922 +.00000072 +00000-0 -17882-4 0  9992
2    59 028.2491 055.3841 0189307 359.3068 000.7200 13.52971557912905
Epoch (UTC): 12 October 2019 19:37:04
Eccentricity: 0.0189307
inclination: 28.2491°
perigee height: 920 km
apogee height: 1202 km
right ascension of ascending node: 55.3841°
argument of perigee: 359.3068°
revolutions per day: 13.52971557
mean anomaly at epoch: 0.7200°
orbit number at epoch: 91290

The dashed part of the orbit path shows where the satellite is in the earth's shadow,  

DLR